Location: Unspecified
(0.0000°N, 0.0000°E)
Time: 10:48:35
(UTC+00:00)

N. Korean satellite - Pass Details

Date: 23 March 2017
Orbit: 460 x 518 km, 97.2° (Epoch: 28 June)

Event Time Altitude Azimuth Distance (km) Brightness Sun altitude
Rises 18:55:16 0° 177° (S) 2,623 10.2 -12.2°
Reaches altitude 10° 18:57:25 10° 181° (S) 1,727 9.4 -12.7°
Maximum altitude 19:01:03 53° 259° (W) 621 7.5 -13.6°
Drops below altitude 10° 19:04:36 10° 337° (NNW) 1,688 9.6 -14.5°
Sets 19:06:41 0° 341° (NNW) 2,557 10.5 -15.1°
